This is the latest recevied weather packets stored in our database for station/object KE8DDT-7. If no packets are shown the sender has not sent any weather packets the latest 10 day(s).
| Time | Temp. | Humidity | Pressure | Rain* | Wind** | Luminosity | Snow |
|---|---|---|---|---|---|---|---|
| 1778152778 | 4.44° C | 71% | 1004.7 hPa | 0 mm | - | 33 W/m² | - |
| 1778152478 | 4.44° C | 71% | 1004.6 hPa | 0 mm | - | 33 W/m² | - |
| 1778152178 | 4.44° C | 70% | 1004.5 hPa | 0 mm | - | 32 W/m² | - |
| 1778151878 | 4.44° C | 71% | 1004.5 hPa | 0 mm | - | 28 W/m² | - |
| 1778151578 | 4.44° C | 70% | 1004.5 hPa | 0 mm | - | 26 W/m² | - |
| 1778151278 | 4.44° C | 70% | 1004.5 hPa | 0 mm | - | 23 W/m² | - |
| 1778150979 | 4.44° C | 70% | 1004.5 hPa | 0 mm | - | 21 W/m² | - |
| 1778150678 | 4.44° C | 70% | 1004.4 hPa | 0 mm | - | 16 W/m² | - |
| 1778150378 | 4.44° C | 70% | 1004.5 hPa | 0 mm | - | 12 W/m² | - |
| 1778150078 | 4.44° C | 70% | 1004.3 hPa | 0 mm | - | 11 W/m² | - |
| 1778149778 | 4.44° C | 70% | 1004.3 hPa | 0 mm | - | 7 W/m² | - |
| 1778149478 | 4.44° C | 70% | 1004.2 hPa | 0 mm | - | 0 W/m² | - |
| 1778149178 | 4.44° C | 69% | 1004.3 hPa | 0 mm | - | 0 W/m² | - |
| 1778148878 | 4.44° C | 69% | 1004.3 hPa | 0 mm | - | 0 W/m² | - |
| 1778148578 | 4.44° C | 68% | 1004.3 hPa | 0 mm | - | 0 W/m² | - |
| 1778148278 | 4.44° C | 68% | 1004.3 hPa | 0 mm | - | 0 W/m² | - |
| 1778147738 | 4.44° C | 68% | 1004.2 hPa | 0 mm | - | 0 W/m² | - |
| 1778147137 | 5° C | 67% | 1004.2 hPa | 0 mm | - | 0 W/m² | - |
| 1778146537 | 5.56° C | 65% | 1004.2 hPa | 0 mm | - | 0 W/m² | - |
| 1778145937 | 5.56° C | 65% | 1004.3 hPa | 0 mm | - | 0 W/m² | - |
| 1778145637 | 5.56° C | 65% | 1004.2 hPa | 0 mm | - | 0 W/m² | - |
| 1778145337 | 5.56° C | 64% | 1004.3 hPa | 0 mm | - | 0 W/m² | - |
| 1778145040 | 6.11° C | 64% | 1004.3 hPa | 0 mm | - | 0 W/m² | - |
| 1778144737 | 6.11° C | 64% | 1004.4 hPa | 0 mm | - | 0 W/m² | - |
| 1778144438 | 6.11° C | 63% | 1004.5 hPa | 0 mm | - | 0 W/m² | - |
* Rain latest hour (hover to see other rain measurements)
** Current wind speed in m/s (hover to see current wind gust speed)